Tracking 27112 objects as of 28-Mar-2023
HD Live streaming from Space Station
objects crossing your sky now

OPS 2222

Track OPS 2222 now!
OPS 2222 is classified as:


NORAD ID: 3334
Int'l Code: 1968-063A
Perigee: 32,057.0 km
Apogee: 40,108.8 km
Inclination: 8.9 °
Period: 1,450.9 minutes
Semi major axis: 42453 km
RCS: Unknown
Launch date: August 6, 1968
Source: United States (US)
Launch site: AIR FORCE EASTERN TEST RANGE (AFETR)
Your satellite tracking list
Your tracking list is empty




NASA's NSSDC Master Catalog

Two Line Element Set (TLE):
1 03334U 68063A   23086.60249675 -.00000038  00000-0  00000-0 0  9996
2 03334   8.9478 296.5432 0948298 197.4016 151.9993  0.99249001 14433
Source of the keplerian elements: McCants